Ashtabula, OH

11:15 PM EST on November 19, 2017 (GMT -0500)
Ashtabula County

Weather History for KHZY - March, 2014

Change the Weather History Date:

Wednesday, March 26, 2014

  Actual Average (KGKJ) Record (KGKJ)
Temperature  
Mean Temperature 14 °F -  
Max Temperature 23 °F 48 °F 75 °F (1986)
Min Temperature 7 °F 25 °F 5 °F (1974)
Degree Days  
Heating Degree Days 51    
Moisture  
Dew Point 8 °F    
Average Humidity 66    
Maximum Humidity 86    
Minimum Humidity 50    
Precipitation  
Precipitation 0.00 in - - ()
Sea Level Pressure  
Sea Level Pressure 30.24 in    
Wind  
Wind Speed 8 mph (NNW)    
Max Wind Speed 13 mph    
Max Gust Speed 23 mph    
Visibility 8 miles    
Events Snow    
Averages and records for this station are not official NWS values.
T = Trace of Precipitation, MM = Missing Value Source: NWS Daily Summary

Daily Weather History Graph

Daily Weather History Graph

Search for Another Location

Airport or City:

Trip Planner

Search our weather history database for the weather conditions in past years. The results will help you decide how hot, cold, wet, or windy it might be!

Date:

Astronomy

Mar. 26, 2014 Rise Set
Actual Time 7:15 AM EDT 7:41 PM EDT
Civil Twilight 6:48 AM EDT 8:09 PM EDT
Nautical Twilight 6:15 AM EDT 8:42 PM EDT
Astronomical Twilight 5:41 AM EDT 9:16 PM EDT
Moon 4:27 AM EDT (3/26) 3:15 PM EDT (3/26)
Length of Visible Light 13h 21m
Length of Day
12h 25m
Waning Crescent, 22% of the Moon is Illuminated
Mar 26
Waning Crescent
Mar 30
New
Apr 7
First Quarter
Apr 15
Full
Apr 22
Last Quarter

Hourly Weather History & Observations

Time (EDT) Temp. Windchill Dew Point Humidity Pressure Visibility Wind Dir Wind Speed Gust Speed Precip Events Conditions
12:12 AM 21.2 °F 10.1 °F 17.6 °F 86% 30.04 in 1.8 mi NNW 10.4 mph 19.6 mph 0.00 in Snow Light Snow
12:30 AM 19.4 °F 7.9 °F 14.0 °F 80% 30.05 in 3.0 mi North 10.4 mph 23.0 mph 0.00 in Snow Light Snow
12:37 AM 19.4 °F 7.9 °F 14.0 °F 80% 30.06 in 4.0 mi North 10.4 mph 19.6 mph 0.00 in Snow Light Snow
12:42 AM 19.4 °F 8.6 °F 14.0 °F 80% 30.06 in 2.5 mi North 9.2 mph 19.6 mph 0.00 in Snow Light Snow
12:51 AM 19.4 °F 7.9 °F 14.0 °F 80% 30.06 in 1.5 mi North 10.4 mph 19.6 mph 0.00 in Snow Light Snow
12:53 AM 19.0 °F 7.5 °F 14.0 °F 81% 30.10 in 1.8 mi North 10.4 mph 19.6 mph 0.00 in Snow Light Snow
12:59 AM 19.4 °F 9.5 °F 14.0 °F 80% 30.07 in 2.5 mi North 8.1 mph 18.4 mph 0.00 in Snow Light Snow
1:07 AM 19.4 °F 9.5 °F 14.0 °F 80% 30.07 in 5.0 mi North 8.1 mph - 0.00 in Snow Light Snow
1:33 AM 19.4 °F 6.6 °F 12.2 °F 74% 30.08 in 10.0 mi North 12.7 mph 18.4 mph 0.00 in   Overcast
1:53 AM 19.0 °F 9.0 °F 10.0 °F 68% 30.13 in 10.0 mi North 8.1 mph - 0.00 in   Overcast
2:53 AM 17.1 °F 4.3 °F 9.0 °F 71% 30.15 in 10.0 mi NNW 11.5 mph 19.6 mph N/A   Overcast
3:53 AM 15.1 °F 3.3 °F 3.9 °F 61% 30.18 in 10.0 mi North 9.2 mph - N/A   Mostly Cloudy
4:53 AM 12.9 °F 3.8 °F 3.0 °F 65% 30.20 in 10.0 mi North 5.8 mph - N/A   Clear
5:53 AM 12.0 °F 5.9 °F 1.9 °F 64% 30.22 in 10.0 mi North 3.5 mph - N/A   Clear
6:53 AM 7.0 °F - 1.0 °F 77% 30.25 in 10.0 mi Calm Calm - N/A   Clear
7:53 AM 9.0 °F - 3.0 °F 77% 30.30 in 10.0 mi Calm Calm - N/A   Clear
8:53 AM 15.1 °F 7.7 °F 3.9 °F 61% 30.31 in 10.0 mi NNW 4.6 mph - N/A   Clear
9:53 AM 17.1 °F 5.0 °F 3.0 °F 54% 30.33 in 10.0 mi NNW 10.4 mph - N/A   Partly Cloudy
10:44 AM 15.8 °F 6.1 °F 3.2 °F 58% 30.30 in 10.0 mi Variable 6.9 mph - N/A   Mostly Cloudy
10:53 AM 18.0 °F 7.7 °F 5.0 °F 57% 30.34 in 10.0 mi NNW 8.1 mph - N/A   Mostly Cloudy
11:00 AM 17.6 °F 6.4 °F 3.2 °F 53% 30.30 in 10.0 mi NNW 9.2 mph - N/A   Mostly Cloudy
11:16 AM 17.6 °F 7.3 °F 3.2 °F 53% 30.30 in 10.0 mi NW 8.1 mph 17.3 mph N/A   Mostly Cloudy
11:53 AM 19.0 °F 6.8 °F 3.9 °F 52% 30.35 in 10.0 mi NW 11.5 mph 18.4 mph N/A   Mostly Cloudy
12:53 PM 19.0 °F 6.8 °F 3.0 °F 50% 30.36 in 10.0 mi WNW 11.5 mph 23.0 mph N/A   Scattered Clouds
1:53 PM 19.9 °F 11.1 °F 6.1 °F 55% 30.34 in 10.0 mi Variable 6.9 mph 18.4 mph N/A   Mostly Cloudy
2:53 PM 19.9 °F 7.9 °F 6.1 °F 55% 30.35 in 10.0 mi WNW 11.5 mph 21.9 mph N/A   Mostly Cloudy
3:53 PM 21.0 °F 10.6 °F 7.0 °F 55% 30.34 in 10.0 mi WNW 9.2 mph - N/A   Overcast
4:53 PM 21.0 °F 9.3 °F 8.1 °F 57% 30.32 in 10.0 mi NW 11.5 mph - N/A   Overcast
5:53 PM 21.9 °F 11.7 °F 7.0 °F 53% 30.33 in 10.0 mi West 9.2 mph 17.3 mph N/A   Overcast
6:53 PM 21.9 °F 12.5 °F 8.1 °F 55% 30.33 in 10.0 mi WNW 8.1 mph - N/A   Clear
7:53 PM 21.0 °F - 7.0 °F 55% 30.33 in 10.0 mi Calm Calm - N/A   Clear
8:53 PM 18.0 °F - 8.1 °F 65% 30.32 in 10.0 mi Calm Calm - N/A   Clear
9:53 PM 16.0 °F - 8.1 °F 71% 30.33 in 10.0 mi Calm Calm - N/A   Clear
10:53 PM 16.0 °F 10.4 °F 8.1 °F 71% 30.33 in 10.0 mi SSE 3.5 mph - N/A   Clear
11:53 PM 17.1 °F 8.7 °F 7.0 °F 65% 30.33 in 10.0 mi SSE 5.8 mph - N/A   Clear